Theta_e
335 337 342 344 345 344 344 343 342 342 342 343 344 343 342 344 344 343 342 341 341 342 342 342 342 342 342 344 344 344 345 345 345 344 344 345 345 345 345 345 345 345 345 345 344 345 346 347 347 347 347 347 347 346 346 345 345 344 343 342 341 342 342 342 340 337 336 336 337 338 339 340 339 339 340 340 341 339 337 336 336 332 330 330 336
335 337 342 345 345 344 345 344 343 343 344 343 343 342 342 342 341 340 340 342 341 340 340 343 342 342 342 342 343 342 343 344 343 343 343 343 343 344 344 344 344 344 344 344 344 346 346 346 347 347 347 347 347 345 344 343 342 341 340 340 339 339 339 339 339 339 338 337 337 336 338 339 339 338 338 337 338 337 337 336 335 332 331 335 336
337 337 343 344 346 345 345 343 343 344 344 343 343 342 342 341 342 343 344 343 343 343 343 342 340 340 341 342 342 341 340 340 341 342 342 342 342 343 343 343 343 344 345 345 345 345 345 346 346 347 347 346 344 344 343 342 340 339 339 338 337 337 337 337 337 338 338 336 336 336 339 340 339 338 337 336 336 336 335 336 335 334 331 336 336
335 338 343 345 347 346 343 346 347 347 346 346 345 343 340 344 345 344 343 343 343 342 341 341 341 341 341 341 341 341 344 344 344 344 344 343 343 343 343 344 344 343 344 345 345 345 346 346 346 346 345 344 343 343 341 340 339 339 338 337 336 336 336 336 336 337 339 339 337 335 333 332 335 338 336 336 335 334 332 332 332 335 334 334 335
335 337 340 343 345 347 344 346 347 347 346 347 346 346 345 344 344 341 340 341 341 341 342 342 342 341 340 340 341 341 342 342 342 342 341 342 342 344 344 344 344 344 344 344 344 344 344 345 345 345 344 343 343 340 339 338 338 337 336 336 335 335 335 336 336 337 338 339 338 334 331 332 332 334 335 334 335 333 332 332 332 333 333 332 334
335 337 340 342 343 342 344 345 346 346 347 347 347 346 346 344 342 340 340 341 341 341 340 341 341 342 341 339 339 341 342 342 343 343 343 343 343 343 343 343 343 343 343 344 344 344 344 345 344 343 343 343 340 339 339 338 337 337 336 335 336 336 336 336 337 337 337 337 335 330 330 330 330 330 337 339 335 333 333 332 332 332 332 332 333
336 337 340 342 340 341 343 346 347 346 346 346 346 346 346 343 341 340 339 339 339 341 341 339 339 340 341 341 340 342 342 343 343 343 343 343 342 342 342 342 342 342 343 343 343 343 344 344 343 343 343 341 340 338 338 337 337 336 336 336 335 335 335 336 337 339 337 334 330 330 330 330 329 332 335 336 336 334 332 333 334 336 337 336 333
337 338 340 340 340 342 342 345 346 346 346 346 345 345 345 341 340 340 341 340 340 341 339 339 339 339 340 340 340 341 342 342 342 341 344 345 344 342 342 343 344 344 343 343 343 343 343 343 343 342 342 341 340 338 337 337 337 336 335 335 334 334 334 334 335 336 334 330 331 329 329 329 329 331 333 334 334 335 333 333 335 333 335 335 333
335 336 340 341 341 341 342 344 346 346 345 344 343 343 342 340 338 337 338 339 340 337 340 338 340 341 341 341 341 341 341 342 342 342 344 344 344 344 344 344 344 344 344 343 344 343 343 343 342 341 341 341 339 338 337 336 336 335 334 333 334 334 335 335 337 335 330 329 329 328 330 329 331 331 333 334 332 331 331 332 334 334 333 332 333
335 337 340 341 342 341 342 344 346 346 345 343 342 342 342 340 339 338 337 338 339 341 344 345 344 344 344 344 344 344 343 343 342 344 344 344 344 343 344 343 343 343 343 343 343 343 343 342 342 341 340 339 337 336 336 336 335 335 334 334 333 334 334 335 336 332 329 329 328 327 330 334 331 329 331 333 332 331 331 333 331 330 331 331 331
335 336 339 341 343 342 344 344 346 346 343 342 342 342 340 339 339 340 340 340 341 344 344 344 344 343 344 343 342 342 341 341 341 342 342 342 342 342 341 342 341 341 341 342 342 342 342 342 341 340 339 337 336 335 335 335 334 334 333 332 332 333 334 336 332 328 328 328 328 327 330 334 328 328 335 333 332 330 333 333 331 331 333 331 331
334 337 339 341 345 340 343 343 342 342 342 342 341 341 339 339 339 341 343 344 344 343 344 344 343 342 341 341 341 341 341 340 341 341 341 341 341 341 341 341 341 341 341 340 341 341 341 341 340 340 338 336 335 334 333 333 332 332 332 331 331 332 334 334 330 329 329 328 328 327 328 328 328 328 334 333 332 330 329 331 329 333 331 331 331
334 335 341 341 342 339 342 343 341 342 343 340 340 342 341 340 340 342 344 344 343 343 341 342 341 341 341 340 340 340 340 341 340 340 340 340 340 340 340 340 340 340 340 340 340 340 340 340 339 337 336 335 334 333 332 331 331 331 331 331 331 333 332 331 330 329 329 330 328 328 329 330 330 332 333 332 331 330 331 330 331 331 330 329 330
334 334 338 339 342 344 338 341 341 342 343 342 339 341 344 343 344 344 344 343 342 340 340 339 339 339 340 340 340 339 340 339 339 340 340 339 339 339 339 339 339 339 339 339 339 338 338 339 338 336 335 334 333 333 332 331 331 331 331 331 330 332 328 329 330 329 329 329 330 328 328 328 329 332 332 332 331 330 332 331 331 331 330 328 329
334 335 338 339 341 343 341 337 340 340 341 341 341 344 344 344 344 343 342 341 340 339 339 338 339 339 340 340 340 339 339 339 339 339 339 339 339 339 339 339 339 338 339 339 338 338 338 338 338 336 335 334 333 332 331 331 330 330 330 330 330 331 327 330 328 328 328 330 328 328 329 329 331 331 333 332 330 331 332 331 328 329 328 328 328
336 335 337 337 339 343 342 341 335 336 338 339 340 344 345 344 343 342 340 339 339 339 339 339 339 340 339 339 339 339 339 338 339 339 341 338 338 338 338 338 338 338 338 338 338 337 337 337 337 336 335 334 334 333 332 331 330 330 329 329 329 326 327 326 329 328 327 328 328 329 329 329 331 330 332 331 331 330 331 330 327 330 327 328 327
336 336 335 336 339 340 340 339 337 331 332 334 336 339 341 342 343 342 341 343 342 340 340 340 339 340 340 340 342 341 340 340 341 341 342 338 338 339 339 338 338 338 339 338 337 336 337 337 337 337 336 335 334 333 332 331 330 329 329 328 328 327 326 324 328 327 327 330 330 329 330 332 332 331 331 330 329 330 330 329 327 329 327 327 328
336 335 333 335 337 338 340 341 338 337 337 335 331 337 339 341 341 343 343 343 344 344 342 341 341 341 341 341 340 339 339 339 338 339 339 339 339 338 339 338 338 338 338 337 337 337 337 337 336 336 336 335 334 333 332 330 329 328 328 327 325 325 326 324 328 327 327 331 329 330 329 333 332 331 331 331 329 329 329 329 327 327 327 326 326
334 334 334 334 335 337 338 341 338 339 337 337 336 341 334 338 339 340 340 340 340 340 340 338 338 339 338 337 336 334 333 333 334 335 336 336 335 334 337 337 337 337 336 335 335 336 335 336 336 335 335 334 333 332 330 329 328 327 327 326 324 323 319 326 328 327 327 327 327 327 326 333 334 331 331 330 331 329 329 329 327 327 328 327 326
334 333 333 334 335 335 338 341 338 338 338 338 337 338 334 332 335 335 336 336 337 336 334 333 332 332 332 332 331 333 331 333 329 333 331 332 331 332 333 336 336 335 336 335 334 334 334 333 333 333 332 332 331 330 329 328 327 328 326 324 324 318 329 328 328 327 326 326 326 325 329 332 333 333 333 334 331 330 329 328 328 327 326 327 327
332 333 333 333 335 335 336 337 338 339 338 338 338 337 340 331 331 330 331 333 333 333 330 326 324 324 327 326 330 335 336 335 337 336 329 334 324 327 332 336 335 335 335 335 334 333 333 333 332 331 330 329 329 327 328 327 327 326 324 323 318 329 329 328 328 326 327 327 327 326 330 330 331 333 333 333 333 331 329 328 328 328 327 326 326
329 331 333 333 333 334 335 335 336 337 338 339 338 338 338 334 337 339 339 334 329 328 333 338 336 337 327 333 337 334 334 335 335 336 336 334 330 323 329 334 335 334 334 334 333 333 332 332 331 331 330 330 324 330 327 323 324 325 323 318 328 329 329 328 328 327 327 328 327 326 329 329 330 333 332 333 333 331 328 328 329 329 329 327 326
326 328 331 332 333 333 333 333 335 337 337 337 337 337 336 335 336 335 338 332 337 337 336 336 338 337 336 336 334 334 334 334 334 339 333 323 327 322 325 328 330 331 332 332 332 331 331 330 328 329 329 327 333 333 331 332 329 320 318 326 328 328 329 328 328 328 328 325 328 326 327 328 329 331 332 332 332 331 330 330 331 331 332 331 328
327 329 330 332 333 333 333 334 334 335 336 334 336 335 334 335 334 334 334 335 336 335 336 335 335 336 336 334 331 334 333 336 329 329 334 333 327 320 321 323 324 326 327 330 329 330 329 328 328 326 328 330 332 330 330 330 330 330 330 329 329 328 329 328 327 327 328 328 329 325 327 327 328 329 332 332 331 331 331 331 331 331 331 331 331
328 330 330 330 331 332 333 333 334 335 335 333 333 332 333 332 333 333 332 331 333 333 334 334 335 336 336 333 333 334 334 333 333 332 333 332 332 332 331 332 333 332 321 334 333 334 329 332 330 329 332 331 331 330 329 330 330 330 329 328 328 329 329 328 328 326 328 328 329 323 324 326 327 329 330 331 331 331 331 332 332 331 331 332 332
329 328 329 329 331 332 333 333 333 334 334 333 332 332 333 331 331 331 332 332 332 332 332 332 333 335 335 334 334 333 332 332 332 332 332 332 331 331 332 332 332 332 329 332 332 332 332 331 330 330 330 330 330 330 329 328 328 328 328 329 328 327 328 328 327 328 328 328 331 321 324 325 327 329 330 330 331 331 331 331 332 332 332 332 332
328 329 330 330 330 332 333 333 332 332 333 334 332 331 331 332 332 332 332 332 332 331 331 332 332 333 334 333 332 332 332 331 331 331 331 332 331 331 332 332 332 331 330 330 330 331 331 331 331 330 329 329 330 330 329 329 328 327 327 328 328 326 326 327 326 327 327 327 326 319 324 327 328 328 329 330 331 331 331 330 331 332 333 332 332
330 329 330 329 330 330 332 333 332 332 332 332 331 331 331 331 332 331 332 331 332 332 332 332 333 332 333 332 330 333 332 331 331 331 331 332 331 332 333 332 331 331 330 330 329 328 328 329 330 330 329 329 327 327 326 327 327 327 326 327 327 326 326 326 327 327 327 327 328 323 322 325 326 327 329 330 330 331 331 332 331 332 332 332 332
330 329 331 329 330 331 331 331 332 331 331 331 330 331 331 331 331 331 331 330 332 333 333 333 333 332 332 332 332 332 331 331 331 331 331 331 332 331 330 330 331 331 331 328 328 328 327 327 328 329 329 327 326 326 326 325 325 326 325 325 326 326 326 327 327 327 328 327 327 325 320 322 325 325 327 329 329 330 331 331 331 331 331 332 332
331 331 331 330 331 331 330 330 330 331 331 331 331 330 330 330 331 330 331 331 333 333 333 332 333 332 332 332 333 332 332 330 331 331 330 330 331 330 330 330 329 330 329 327 328 327 326 327 327 328 327 325 325 327 326 326 327 327 327 327 327 327 328 327 328 328 328 327 328 327 316 321 322 325 326 327 328 327 328 329 329 330 331 332 332
332 331 331 332 332 330 330 330 331 332 332 330 330 330 331 330 331 331 331 331 332 333 333 333 333 331 331 333 333 332 332 331 330 330 330 330 330 330 329 329 329 329 330 329 330 328 327 326 326 325 326 327 327 327 327 327 327 327 328 328 327 327 327 327 327 327 326 327 327 328 332 317 322 324 325 325 324 324 326 327 328 329 329 330 331
332 332 332 334 332 331 330 330 331 331 331 331 331 331 331 330 331 331 331 332 332 332 333 332 329 331 332 333 333 332 331 331 331 331 329 330 330 329 329 330 329 330 330 330 330 329 329 329 329 329 329 328 327 327 328 327 327 327 328 327 327 327 326 326 326 326 326 327 327 327 327 327 318 321 323 322 323 323 324 325 327 327 328 329 329
332 333 333 334 333 332 331 331 331 331 331 330 331 331 332 331 331 332 332 333 331 331 331 331 331 332 332 333 333 332 330 330 331 332 330 330 331 331 331 330 331 331 331 331 331 330 329 329 329 329 329 328 328 328 330 328 327 327 327 327 327 326 326 326 326 326 325 327 327 326 327 327 327 318 317 320 321 321 322 323 324 324 326 327 327
332 333 333 332 334 334 333 332 331 331 331 330 330 331 332 332 332 333 332 333 332 330 330 332 331 332 332 334 334 331 330 330 330 331 331 330 331 331 330 330 331 332 330 330 330 330 329 329 329 329 326 327 326 326 326 325 326 326 327 327 326 325 325 325 325 325 327 327 327 327 327 326 325 326 324 317 319 318 320 321 322 322 324 324 325
332 333 332 333 333 334 334 332 332 331 331 330 330 331 332 332 331 332 332 333 332 331 331 331 332 331 332 333 333 331 331 330 330 331 331 330 330 330 330 330 331 331 330 330 329 329 329 328 328 327 327 326 325 325 325 325 325 324 325 325 324 325 325 325 326 327 328 328 326 328 326 325 325 324 324 322 312 314 317 319 320 320 321 323 323
332 333 333 333 332 334 334 333 333 332 332 330 331 331 332 332 332 328 332 334 332 331 331 331 331 331 331 332 333 332 332 331 331 332 331 331 330 329 330 331 332 331 330 330 330 328 328 328 328 327 325 324 324 324 325 323 324 323 324 324 325 325 325 326 326 326 328 326 326 327 327 324 323 321 319 322 321 314 314 316 317 317 318 320 321
333 333 332 332 332 333 333 333 333 333 332 331 332 332 332 332 332 331 331 333 332 331 332 332 332 332 332 331 332 332 332 332 331 332 331 332 330 330 330 332 332 332 330 330 329 329 328 328 327 327 326 324 323 323 323 323 324 323 324 324 326 326 325 325 325 326 327 326 325 325 324 323 322 317 321 321 321 320 313 314 315 314 315 317 319
333 333 333 332 332 333 333 333 333 333 333 333 332 332 332 332 332 332 331 332 333 332 332 333 332 333 332 331 333 333 332 332 331 332 331 331 331 331 331 331 332 332 330 329 328 329 328 327 325 327 327 326 323 322 322 322 323 324 323 324 325 325 325 326 327 323 325 324 324 323 323 322 322 321 320 321 320 319 320 316 313 312 312 314 316
333 332 333 333 333 333 333 332 332 333 333 333 333 333 333 333 333 333 332 331 332 332 332 332 333 333 332 333 333 333 332 332 332 331 330 329 330 331 331 332 331 331 330 329 328 328 327 326 325 324 326 326 324 324 323 324 324 324 323 323 325 325 326 327 328 325 325 324 322 321 324 321 321 320 320 322 318 318 317 317 317 316 313 312 313
332 332 332 333 333 333 333 332 332 332 333 332 333 332 332 331 330 331 331 331 331 330 333 333 333 333 334 334 333 334 333 332 332 331 330 329 329 330 331 332 331 330 329 327 327 327 326 325 326 325 325 325 326 324 324 323 323 322 322 323 325 326 326 327 325 323 323 323 323 322 321 321 322 320 320 321 319 318 317 316 314 315 315 312 313
332 332 332 332 333 332 332 330 332 332 331 331 331 331 329 329 330 330 329 331 330 331 331 332 333 334 335 334 334 333 334 333 332 332 331 327 329 330 331 331 331 330 328 327 328 327 327 327 326 325 324 323 323 326 326 325 322 320 321 322 323 325 326 324 322 322 322 322 322 322 321 325 321 321 320 321 318 317 315 315 314 314 314 315 312
330 331 331 331 332 332 331 331 331 332 331 331 331 331 331 331 330 330 331 331 331 330 329 331 332 334 335 335 334 334 334 333 332 333 332 331 329 330 331 330 331 330 329 329 328 325 327 327 327 324 326 323 322 324 326 323 319 317 317 318 320 322 323 321 321 321 321 322 323 321 324 320 318 319 321 318 316 315 313 313 314 313 313 312 311
330 330 331 331 331 331 331 331 330 330 331 330 330 331 332 333 332 332 332 332 334 333 332 331 332 332 334 335 335 335 334 334 333 332 332 331 330 330 330 331 331 330 329 328 328 328 327 327 327 325 323 324 323 326 326 323 318 321 319 315 314 315 317 318 320 320 321 321 321 320 319 319 318 318 320 315 315 313 312 313 312 312 311 311 310
329 329 329 330 330 330 331 331 330 331 331 331 329 332 333 334 334 334 334 333 332 333 334 332 332 331 331 333 335 335 335 334 334 333 332 332 331 330 331 332 331 331 330 328 328 327 328 327 327 326 325 321 322 322 324 324 321 319 313 313 315 315 312 314 315 318 321 319 320 320 319 317 318 318 318 313 313 311 311 312 311 311 310 310 309
328 328 329 329 329 330 331 331 330 331 332 331 330 331 332 332 333 334 334 333 333 332 332 331 331 330 330 331 332 334 335 334 334 334 331 332 332 332 332 332 331 331 330 328 327 328 328 328 327 326 325 322 320 322 322 323 322 323 318 315 313 312 312 313 315 315 318 318 318 318 318 316 316 316 314 312 314 311 310 311 310 311 310 309 307
327 328 330 330 330 330 331 331 331 331 331 332 332 331 330 330 330 329 328 328 328 329 328 328 329 329 329 331 333 334 334 334 334 334 333 331 332 332 333 332 331 331 330 329 329 328 327 327 327 327 326 326 323 321 321 321 322 322 322 321 319 315 313 314 312 308 316 318 319 318 317 316 316 314 311 310 311 310 310 309 310 309 309 308 304
327 329 330 330 330 330 331 331 331 331 333 333 333 330 330 330 330 329 329 328 327 328 331 332 331 331 332 331 332 333 334 334 334 334 333 332 332 332 333 333 332 331 330 330 328 328 327 328 328 327 326 326 325 321 320 319 319 319 320 320 318 317 317 314 311 312 307 314 316 315 315 316 315 312 310 309 309 309 309 309 309 309 308 306 303
327 329 329 329 329 330 330 331 331 331 333 333 333 332 329 329 329 329 329 329 328 328 330 331 332 331 331 331 332 332 333 333 333 333 333 333 332 332 333 332 332 332 330 329 329 329 328 328 328 329 328 326 325 322 321 321 317 317 317 317 316 316 316 317 316 312 309 306 309 314 315 314 312 309 308 307 308 308 308 308 309 309 307 305 302
327 327 328 329 330 330 330 331 331 331 332 333 333 332 330 330 330 329 329 329 330 330 330 331 331 331 330 331 331 332 332 332 332 332 333 333 331 332 333 332 331 331 330 331 331 330 327 327 327 327 326 326 325 324 323 322 320 319 315 315 315 314 314 315 316 315 310 307 307 308 307 310 311 309 308 308 308 309 309 308 309 308 306 304 302
323 327 328 329 329 330 329 330 330 331 332 333 333 333 332 329 330 330 329 329 329 329 330 329 330 330 329 330 330 330 330 330 331 332 332 332 332 331 331 332 331 330 328 331 331 330 328 327 328 327 326 325 324 323 323 323 320 321 318 316 314 312 311 311 311 312 311 311 306 308 309 306 305 305 306 305 307 307 308 308 308 308 305 302 301
318 321 324 326 328 329 329 329 330 331 332 332 332 332 332 331 329 329 329 329 329 329 328 327 328 329 328 328 329 329 329 329 330 330 331 332 331 330 330 330 331 330 328 330 329 329 329 328 329 328 325 324 322 322 322 322 321 320 319 317 315 312 311 309 309 310 309 307 307 307 308 307 307 304 305 305 305 306 307 308 308 306 303 302 300
Wind_Speed
7 9 8 9 5 4 7 8 8 9 9 9 10 9 10 12 13 13 13 12 11 14 13 12 12 11 12 14 13 13 14 15 15 15 15 16 16 17 17 17 17 17 17 17 16 18 17 18 19 20 21 21 21 21 20 20 20 20 19 19 19 18 18 19 20 20 21 21 22 21 20 20 21 21 21 22 21 20 17 19 17 13 12 15 18
10 8 8 8 6 6 6 8 8 10 11 11 10 10 10 12 12 11 11 13 13 12 12 14 13 13 12 13 13 13 12 13 15 15 14 15 16 16 16 16 16 17 17 16 16 17 18 19 19 20 20 20 20 19 19 19 19 18 18 18 17 17 16 15 13 13 17 18 20 20 21 22 22 22 21 21 20 20 16 18 17 13 11 17 19
10 9 8 9 7 6 6 7 9 10 12 12 12 11 11 11 13 13 14 14 13 13 13 13 11 12 13 12 14 13 12 13 14 13 14 14 15 15 15 16 17 17 17 17 17 17 18 19 19 20 20 20 19 18 18 18 17 17 17 17 17 16 16 15 13 11 10 14 15 17 21 23 21 21 22 21 20 18 17 19 18 17 13 19 17
10 10 9 8 4 1 7 10 10 10 11 11 11 11 11 14 14 13 13 12 13 13 13 13 13 13 13 13 12 13 15 15 14 14 15 15 14 14 15 16 16 16 16 17 18 17 18 19 20 20 20 20 19 18 17 17 16 16 16 16 16 15 14 13 11 8 6 7 10 13 12 12 15 21 20 19 19 19 15 17 18 19 18 18 19
10 10 10 9 9 4 6 10 10 9 10 11 9 9 10 13 13 12 11 13 13 13 13 13 14 13 12 11 12 12 14 14 13 13 14 14 15 16 16 16 16 16 16 17 17 17 18 18 19 19 19 19 18 17 17 16 16 16 15 15 14 13 11 9 8 7 4 4 8 15 11 13 11 17 14 14 19 15 14 17 18 18 17 17 18
9 10 9 9 9 8 5 9 10 10 10 11 12 12 10 12 13 12 12 13 12 11 12 12 12 12 12 11 12 12 13 13 14 14 14 14 14 15 15 15 16 16 16 16 17 16 17 17 18 19 18 18 17 16 16 16 16 15 15 14 14 12 10 8 7 6 5 2 14 10 11 11 10 10 19 21 19 16 19 18 18 18 17 17 17
9 8 10 9 8 8 3 10 12 12 12 14 13 11 11 11 13 13 12 11 11 13 12 11 11 12 12 11 10 12 13 13 13 13 13 13 14 13 13 15 16 15 16 16 15 16 17 17 18 18 18 17 16 16 15 15 14 14 13 13 12 11 10 10 10 10 10 7 8 11 8 12 10 10 20 18 18 17 17 18 18 18 20 19 19
7 7 9 9 8 7 7 10 12 13 12 13 14 12 10 10 11 12 13 12 12 11 11 11 10 10 11 11 10 12 12 12 12 11 13 13 13 14 16 16 16 16 15 15 16 16 16 17 17 17 17 16 15 15 14 14 13 13 12 12 11 9 8 8 8 9 11 10 10 7 9 11 11 10 15 15 16 17 16 17 17 17 17 18 15
8 9 9 9 9 8 6 9 11 12 13 13 13 12 11 11 11 11 12 11 11 9 10 9 12 12 11 11 11 11 12 11 11 13 15 14 13 14 15 15 15 15 15 15 16 16 16 17 17 16 15 15 14 13 13 13 13 12 12 11 10 10 11 11 8 3 11 9 9 9 12 10 11 9 12 15 15 15 14 14 15 16 16 15 16
9 8 9 9 9 6 4 8 12 12 12 12 12 12 11 10 10 11 11 10 10 10 12 12 11 12 12 10 11 12 11 9 11 13 13 14 14 15 15 15 15 14 14 15 15 16 16 16 16 15 15 14 13 13 13 13 12 11 11 10 10 10 10 10 6 12 9 9 10 11 10 11 9 9 14 16 14 13 10 11 14 9 9 15 16
8 8 8 10 10 5 3 8 11 9 11 12 12 12 11 9 9 10 10 9 9 11 11 11 11 11 13 12 10 11 11 11 11 12 13 13 14 15 15 14 14 14 14 15 15 15 15 16 15 15 14 13 13 13 13 12 12 11 10 10 10 11 12 11 8 8 10 11 10 10 11 13 9 9 17 14 14 12 9 11 12 15 18 16 15
8 8 8 10 9 5 5 7 10 11 10 12 11 11 11 9 8 11 11 10 10 11 12 11 10 11 12 12 10 11 10 10 11 11 12 12 13 13 14 14 13 14 14 14 14 14 14 14 14 14 14 13 13 13 13 12 11 11 10 9 9 10 11 8 10 8 10 11 11 8 13 11 10 11 16 14 15 16 14 14 14 16 15 15 14
9 8 10 10 9 5 5 6 7 8 11 10 11 12 10 10 9 10 10 10 10 9 12 12 11 11 11 11 10 10 10 10 10 11 11 11 12 12 13 13 13 13 14 13 13 13 13 14 14 13 13 13 12 12 12 12 11 10 9 9 8 11 11 10 8 9 10 9 8 9 12 10 8 11 13 13 14 13 14 13 15 15 13 12 13
8 9 8 9 8 7 7 6 6 6 7 7 8 10 11 10 10 10 10 10 9 10 10 10 10 10 10 10 10 9 9 10 10 10 10 11 11 11 12 12 13 13 13 13 13 13 13 13 13 12 12 12 12 12 11 11 11 10 10 9 10 8 10 0 9 8 9 9 8 9 10 8 9 12 13 13 13 12 13 13 14 13 13 13 12
8 8 9 9 10 8 7 6 6 7 8 7 7 10 10 10 10 10 10 10 10 10 10 10 10 10 9 10 9 9 9 9 9 9 10 11 11 11 11 11 12 12 12 12 12 12 12 12 12 12 11 11 11 11 11 11 10 10 10 10 9 10 13 6 6 7 8 7 7 8 9 8 11 12 13 13 11 12 12 12 9 12 12 13 11
9 8 9 9 9 9 7 6 7 7 7 7 8 8 8 9 9 9 10 9 11 10 10 11 10 10 9 10 9 9 9 9 7 7 7 9 10 10 10 11 11 11 11 11 11 11 11 11 11 11 10 10 10 11 11 10 10 10 9 9 9 11 11 9 6 8 7 6 6 7 7 8 11 11 12 13 12 13 13 11 8 17 10 11 9
8 7 7 8 9 10 9 8 6 7 7 7 8 9 8 8 5 8 8 9 9 10 11 11 9 10 10 10 10 10 10 9 10 11 10 9 9 9 10 11 11 11 11 11 11 11 11 10 10 10 10 10 10 10 10 10 9 9 9 8 9 9 9 10 7 7 6 6 6 7 6 6 7 11 11 9 10 11 12 10 9 12 10 9 11
8 7 7 8 8 8 9 9 9 8 7 5 8 9 8 7 6 6 8 8 9 10 12 12 10 9 9 9 9 10 10 10 10 9 9 8 7 8 9 10 10 10 11 11 11 10 10 10 10 10 10 9 10 10 10 9 9 9 8 7 7 7 9 10 6 5 5 5 6 6 6 10 9 9 9 11 8 10 11 10 9 10 9 8 9
7 7 7 8 7 7 8 9 9 8 8 6 6 7 9 8 7 7 7 9 10 11 11 11 10 9 8 10 9 9 9 9 9 8 8 7 7 8 7 8 10 10 10 10 10 10 10 9 9 9 9 9 9 9 8 8 7 7 6 5 6 7 8 5 6 5 6 5 5 6 6 9 10 8 7 8 9 8 9 8 8 8 10 7 9
5 6 7 7 7 7 7 8 8 8 7 7 6 7 7 9 8 7 7 8 10 11 11 11 10 9 10 10 10 9 8 7 8 8 8 9 9 8 7 8 8 8 9 10 9 9 9 9 9 8 8 8 8 8 7 6 6 5 4 6 6 7 5 3 4 5 4 3 5 5 6 8 10 9 9 10 6 8 8 8 7 9 8 6 7
4 6 6 7 7 7 8 7 7 8 7 6 6 7 8 9 7 8 7 8 9 10 10 10 9 8 8 9 9 8 7 6 7 7 7 6 7 9 9 8 8 8 9 9 9 8 8 8 8 7 6 6 6 7 6 4 3 2 4 7 8 4 4 3 4 4 4 3 6 5 6 8 10 9 8 8 7 7 7 7 7 8 7 7 6
6 6 6 7 7 8 8 7 6 8 7 5 5 6 7 8 8 7 7 6 7 9 8 7 8 7 7 7 7 6 6 6 6 8 7 7 7 8 9 9 9 8 8 9 8 7 7 6 6 5 4 3 5 4 5 4 4 2 5 8 7 3 2 3 3 3 4 3 6 5 7 9 10 10 8 8 8 7 4 5 7 7 9 5 6
7 6 6 7 7 7 9 8 7 8 7 7 5 5 7 6 8 7 6 7 8 8 7 7 7 7 7 7 6 6 6 6 4 5 7 10 7 7 8 9 9 7 7 7 6 6 6 5 3 2 2 4 5 1 2 3 5 7 5 6 1 2 2 1 2 3 2 3 3 5 5 8 9 9 8 8 8 7 6 7 8 9 10 8 6
8 7 7 7 8 7 9 8 8 8 7 7 6 5 5 6 6 7 7 7 8 6 7 7 7 7 6 6 5 6 6 6 6 8 7 6 5 6 8 9 9 7 7 5 7 5 6 6 5 4 6 4 1 1 1 0 2 1 1 3 2 2 1 2 1 1 2 2 2 4 3 6 8 8 8 8 9 9 7 9 8 8 8 8 9
8 7 6 8 9 9 9 8 9 8 8 7 7 6 6 6 6 6 7 7 7 7 6 7 7 7 6 6 4 6 5 5 5 4 6 6 6 6 5 5 6 6 5 5 5 5 6 5 4 5 3 1 1 1 1 2 1 1 1 1 2 1 1 1 1 2 2 2 4 5 1 4 6 7 8 8 9 10 11 11 11 9 9 10 11
8 8 8 9 10 9 9 8 9 9 9 8 7 6 6 6 6 6 7 6 7 7 7 7 7 6 7 6 4 5 6 4 6 6 5 4 4 5 5 4 3 3 5 4 3 2 3 2 2 1 1 1 1 1 2 2 2 2 2 1 2 2 1 1 1 1 2 2 5 6 1 2 5 7 8 9 9 10 11 12 12 12 11 11 11
8 8 8 8 9 9 9 9 9 9 10 8 7 6 6 5 5 6 6 6 6 7 7 7 7 8 8 6 6 6 5 5 5 5 4 4 4 4 3 3 4 4 4 3 3 2 3 2 2 2 1 1 1 1 2 2 2 3 3 2 2 2 2 2 1 2 2 2 3 7 4 3 4 5 7 8 9 10 11 11 12 13 13 12 12
8 9 9 8 9 11 10 10 9 10 9 9 8 7 6 6 6 6 6 6 6 7 7 7 7 7 8 7 7 6 6 5 5 5 4 4 5 4 3 3 3 2 2 2 2 3 3 3 2 2 2 2 3 2 3 3 2 2 3 2 2 3 2 2 2 2 2 2 3 8 6 4 3 5 7 7 9 10 12 13 13 13 13 14 13
9 10 9 9 10 10 11 11 10 11 9 9 8 7 7 7 7 6 6 6 7 6 7 7 6 7 8 7 7 6 6 5 5 5 4 4 4 4 3 3 2 2 2 2 2 2 3 3 3 3 3 2 2 2 1 2 3 2 2 1 2 3 2 3 3 2 2 3 4 5 8 7 3 4 5 7 9 10 11 12 12 12 13 13 13
10 10 10 9 10 11 12 12 11 10 9 9 8 8 7 7 7 7 6 6 6 6 7 6 6 7 7 8 7 6 5 5 5 5 4 4 4 3 3 3 3 3 2 2 2 3 3 3 2 2 2 2 2 2 2 3 3 2 3 3 3 3 2 2 3 3 4 4 4 1 8 6 4 3 4 6 8 9 9 10 10 10 11 11 12
10 11 10 9 9 11 11 12 11 10 9 9 9 8 8 8 7 7 7 7 6 6 6 6 6 7 7 8 8 7 5 5 5 5 5 5 4 4 4 3 3 3 2 2 1 2 2 2 2 2 2 3 3 3 3 4 4 3 2 2 4 4 4 4 4 4 5 5 4 5 2 8 6 5 1 4 7 8 9 9 10 9 9 10 12
12 11 10 9 10 12 12 12 12 10 10 10 9 8 8 8 8 7 7 7 7 6 6 6 7 6 7 7 8 7 7 5 6 5 5 5 5 5 4 3 3 3 3 2 2 2 2 1 0 2 3 3 4 4 3 3 5 4 3 3 4 4 5 4 4 4 4 4 4 4 4 0 8 5 4 2 5 8 9 10 10 10 9 10 10
10 12 11 11 12 12 11 12 12 11 11 11 9 8 8 8 7 7 7 7 7 7 6 6 6 7 6 7 7 8 7 6 6 6 6 5 5 4 4 4 3 3 3 3 3 2 3 3 3 3 3 4 4 4 3 3 5 5 5 5 3 5 6 4 3 4 4 3 4 4 4 4 4 7 7 5 6 10 10 10 11 11 12 11 10
10 9 12 13 11 9 9 9 11 12 12 10 9 8 8 7 7 7 7 8 7 7 7 6 7 6 7 8 7 8 7 7 6 7 6 6 5 5 5 5 4 4 4 3 4 4 4 4 4 4 4 4 5 5 5 5 5 6 5 5 4 4 4 3 3 3 3 3 3 3 3 4 3 2 3 9 10 9 10 11 12 12 13 12 11
10 10 13 13 13 10 9 9 11 12 12 11 10 9 8 8 7 7 7 8 7 7 7 7 7 7 7 7 8 8 8 7 7 6 7 6 6 6 6 5 5 5 4 5 5 5 4 5 4 5 5 5 6 5 5 5 6 6 6 4 4 3 3 3 3 3 2 2 3 2 2 2 2 3 2 5 8 10 8 10 11 12 12 12 11
14 12 11 12 13 13 11 10 12 13 12 12 11 10 9 8 7 7 7 8 7 7 7 7 7 7 7 7 9 9 8 8 8 7 7 7 6 6 6 6 6 4 5 5 5 5 5 5 5 5 6 6 5 6 5 5 5 5 5 4 3 2 4 3 3 4 2 3 3 1 1 3 3 3 2 3 3 6 8 6 8 11 12 11 12
15 14 13 13 14 15 13 13 13 13 13 12 11 10 9 9 9 8 8 8 8 7 7 7 7 7 7 7 8 9 9 9 8 8 7 7 6 6 6 6 6 6 6 5 6 5 5 4 5 5 6 6 6 6 5 5 5 5 5 3 3 3 3 3 4 3 2 2 1 2 2 3 3 1 3 2 2 2 6 6 7 7 11 12 12
15 15 14 14 14 14 14 14 13 13 13 12 11 10 9 9 9 8 8 8 8 7 7 7 7 7 7 8 8 9 9 9 9 9 7 7 7 6 6 7 6 6 6 6 6 6 6 6 6 6 5 6 6 6 6 6 4 3 4 4 4 4 4 3 3 1 3 0 2 2 2 3 3 3 2 2 2 3 1 5 8 8 11 10 12
12 15 14 13 12 12 12 12 12 14 13 13 12 12 11 10 8 9 8 9 8 8 8 8 7 8 8 8 9 8 8 9 9 9 8 8 7 7 7 8 7 7 7 6 7 7 7 6 7 6 5 5 5 5 5 4 5 4 4 6 4 5 4 3 1 1 1 2 3 3 2 2 3 3 2 1 3 3 3 3 3 3 7 10 10
13 13 15 14 13 13 12 12 13 14 13 12 11 11 11 11 11 10 10 9 9 8 8 8 8 8 8 8 8 8 8 9 9 9 9 8 8 8 8 8 8 7 7 7 7 7 7 7 7 6 6 6 5 4 5 5 5 6 5 6 5 4 5 3 1 2 3 3 2 2 3 2 1 2 1 1 3 2 3 3 2 2 4 7 9
14 14 15 15 15 14 13 15 12 14 13 12 12 12 12 11 11 12 11 11 10 10 10 9 8 9 9 8 8 8 8 9 9 9 9 8 8 8 8 9 8 7 6 8 8 8 7 7 6 5 6 6 6 6 6 4 6 5 6 6 4 4 4 2 3 4 2 2 2 2 2 0 1 1 1 1 2 3 3 2 3 3 3 3 6
14 15 16 16 16 16 15 14 13 14 16 16 14 13 13 12 11 10 11 10 9 7 10 10 9 8 10 11 11 10 10 9 8 9 9 9 8 8 9 10 9 8 8 9 8 7 7 8 6 6 4 6 6 4 2 4 4 6 3 1 4 6 3 5 5 5 2 1 1 2 1 2 2 1 1 1 3 3 3 3 3 3 3 3 4
14 15 16 16 16 15 15 14 14 15 16 16 14 15 13 13 12 10 10 9 10 9 10 10 9 10 10 10 10 11 11 11 10 10 9 10 9 9 8 8 10 9 9 10 9 9 8 8 6 7 6 6 5 2 2 4 4 2 3 2 4 3 4 3 4 5 5 3 2 3 1 1 2 1 1 2 2 3 3 3 4 4 4 3 3
13 14 15 16 14 14 15 15 15 15 14 16 13 15 14 14 14 11 11 12 10 10 10 10 11 12 13 12 11 11 12 11 12 10 9 9 9 9 9 9 10 8 8 9 9 9 8 7 8 9 8 7 6 5 5 6 5 3 3 4 2 2 4 7 7 6 4 6 5 1 1 1 1 1 1 2 2 2 3 3 4 4 3 4 4
14 14 14 14 12 16 17 17 16 15 14 14 14 14 12 13 13 12 11 11 11 11 10 10 11 11 11 12 13 12 12 12 12 12 8 9 9 9 9 10 10 9 9 10 9 9 10 10 10 8 9 9 7 6 5 6 6 5 4 2 3 4 3 5 2 2 7 5 3 3 2 2 1 1 2 3 2 2 3 3 3 3 3 4 4
14 14 14 15 15 15 17 17 14 14 14 16 16 14 13 14 13 13 14 13 14 13 16 15 12 12 13 10 11 12 13 11 11 12 9 9 10 9 9 9 9 9 8 9 9 9 10 10 10 9 10 10 8 6 6 3 3 4 5 6 3 2 2 1 2 1 7 5 6 4 3 4 3 2 2 3 2 2 2 3 3 4 4 4 4
15 14 13 15 17 16 16 16 15 14 14 15 17 14 14 13 17 16 14 14 15 14 13 11 11 11 11 13 12 13 14 13 12 10 9 11 9 9 10 9 9 9 8 9 10 10 8 8 7 9 10 8 8 8 7 6 4 5 6 8 4 1 0 2 3 2 4 4 3 4 4 2 3 3 3 3 2 2 2 3 3 4 4 4 3
13 11 12 13 15 16 15 15 14 13 13 13 16 16 15 15 16 16 13 14 15 13 13 13 12 10 11 14 13 12 13 12 10 10 12 12 9 10 10 10 10 10 8 9 10 9 6 6 8 8 7 7 8 9 6 5 6 5 7 7 5 3 2 3 2 3 3 4 2 5 3 3 3 3 3 3 3 2 3 2 2 4 4 3 2
11 12 13 12 12 13 14 13 15 14 13 15 14 17 15 14 14 13 14 12 13 12 9 9 10 11 13 13 12 11 10 10 10 11 11 10 10 10 12 11 11 11 9 7 7 7 7 8 8 7 7 5 5 6 6 6 6 5 6 5 4 3 3 1 1 3 4 5 5 4 5 3 3 3 3 2 2 2 2 3 2 3 4 3 2
9 9 10 10 11 11 13 15 16 13 13 15 15 17 17 14 14 14 15 13 11 11 12 12 10 11 14 13 12 9 7 9 11 13 11 11 10 10 9 10 11 11 9 9 9 9 7 8 8 8 7 7 6 8 7 6 6 6 7 6 6 4 3 3 4 5 5 7 6 2 3 2 5 4 4 3 3 3 3 3 4 3 3 2 2
5 8 9 11 11 12 13 16 17 13 13 15 16 17 16 16 15 15 16 15 14 13 12 13 13 12 14 14 14 9 10 10 10 11 13 12 12 11 10 10 8 7 8 11 11 10 9 8 6 8 9 10 7 8 8 7 7 6 7 6 7 7 6 6 6 7 7 5 6 6 3 3 1 2 5 3 3 3 2 2 4 4 3 2 2
Wind_Direction
130 126 111 113 124 117 105 93 98 100 101 90 89 92 89 88 84 80 79 84 85 77 78 75 79 77 78 77 76 74 70 71 70 71 71 73 72 71 70 71 72 73 74 75 77 75 74 75 75 74 73 70 68 68 66 65 63 63 63 64 66 67 69 73 78 75 70 66 63 62 65 66 62 60 59 57 53 47 45 51 54 51 56 51 48
144 124 126 127 147 131 115 103 97 94 89 90 97 99 91 84 86 92 85 77 77 80 85 80 71 71 74 77 81 81 84 82 74 71 71 73 74 74 75 75 75 76 77 78 78 75 75 75 74 74 72 71 69 67 65 65 65 66 66 67 67 67 66 65 61 67 79 74 77 67 63 64 62 63 59 56 55 52 51 55 55 56 58 56 54
132 127 124 123 144 126 116 114 101 99 94 92 93 90 90 90 84 80 83 86 82 79 76 78 76 80 79 78 74 74 77 74 75 76 79 79 79 80 80 80 78 77 79 80 75 74 76 76 75 71 71 71 69 66 65 65 66 66 68 69 69 69 65 61 55 48 56 78 85 83 72 62 59 59 57 54 55 53 50 54 54 53 57 55 57
132 114 121 116 125 104 114 94 93 90 92 86 83 84 96 96 95 94 93 99 100 94 87 88 86 80 76 72 76 80 78 81 81 83 84 85 85 84 81 79 80 79 80 78 77 75 73 74 74 72 71 72 71 68 66 66 66 67 68 69 68 68 67 60 47 33 44 94 96 74 62 62 58 57 59 59 59 57 56 56 58 58 58 55 55
125 121 124 135 136 128 120 106 105 108 98 94 90 86 84 94 96 98 97 84 82 82 76 73 79 89 84 78 83 83 82 81 82 84 85 86 87 87 88 85 83 80 77 78 77 77 75 75 74 74 73 72 70 69 67 67 67 68 68 68 68 65 58 44 20 5 351 84 66 62 62 63 57 53 55 70 74 67 64 57 56 58 58 55 53
124 125 134 136 125 120 103 104 111 115 109 105 104 97 100 104 100 92 86 84 83 87 91 91 88 88 86 89 87 83 85 86 88 91 90 89 88 83 80 82 81 81 80 80 79 78 78 78 78 78 77 72 70 68 68 69 69 69 68 68 68 61 46 31 18 354 307 296 67 67 58 60 59 60 50 55 71 61 57 55 57 57 54 55 56
124 130 127 129 124 116 118 108 107 114 107 100 101 110 105 95 99 97 98 100 91 86 91 90 83 92 100 96 97 102 94 92 93 91 97 100 98 95 89 85 84 81 80 80 81 80 78 79 80 80 76 73 69 68 69 70 71 70 69 67 62 46 26 8 356 2 22 63 59 69 72 68 65 63 49 52 53 56 56 54 55 49 46 47 55
127 123 129 129 117 117 102 103 111 111 111 108 113 115 115 102 96 100 95 92 92 93 95 92 100 98 93 97 100 96 95 94 90 90 78 75 77 93 92 87 82 79 81 83 82 79 79 79 78 78 75 72 70 69 70 72 72 71 69 65 58 45 26 356 349 38 40 54 61 74 75 73 71 64 55 57 54 49 47 51 56 51 48 47 46
135 130 123 116 111 86 108 118 118 121 121 119 117 117 104 95 92 90 92 99 104 106 73 92 108 98 97 96 92 92 89 85 82 81 76 78 83 81 83 86 83 82 82 85 84 83 81 80 78 76 75 71 70 68 69 71 72 71 68 64 46 23 0 350 345 117 72 68 61 44 57 66 65 66 59 65 65 63 56 50 58 53 52 50 51
131 128 128 130 122 92 125 128 121 125 121 120 114 108 105 106 109 106 106 101 100 91 75 68 88 99 95 94 97 96 96 99 94 90 96 91 86 84 84 82 82 81 83 84 83 82 82 83 82 78 76 72 70 68 67 68 68 66 62 52 36 14 354 348 354 48 65 80 68 63 69 73 65 54 67 75 67 62 64 71 68 66 80 59 53
133 128 130 123 113 87 110 120 131 126 120 117 114 110 111 114 118 107 106 108 97 91 90 93 92 103 102 99 101 107 108 103 100 92 89 91 88 83 81 80 81 86 86 83 84 83 80 78 76 76 75 73 69 67 65 64 64 63 58 48 29 13 358 344 54 60 69 62 57 50 70 65 65 57 77 68 60 62 51 68 64 49 63 64 53
133 127 130 116 107 81 90 109 121 128 117 121 119 113 109 107 112 113 99 98 103 102 104 103 113 104 103 104 106 104 108 101 98 95 90 86 86 84 83 85 86 85 82 82 82 83 85 83 81 78 76 73 69 67 66 64 63 61 55 44 28 11 356 350 59 54 59 69 61 55 56 49 62 57 63 58 59 59 57 62 53 60 49 49 51
131 133 120 130 131 82 85 120 116 126 129 127 128 120 113 112 108 107 109 112 116 124 116 114 107 101 99 105 105 106 114 114 108 99 94 92 90 90 91 91 92 88 85 84 83 82 82 81 80 79 77 74 71 68 66 66 63 60 52 43 18 360 352 17 65 67 63 54 67 43 64 61 73 45 48 49 52 56 58 47 48 54 48 43 51
136 133 135 144 130 100 73 96 125 106 96 108 117 122 121 115 116 115 116 125 128 120 114 112 105 104 105 108 111 107 106 106 105 102 101 97 95 95 99 93 88 87 85 85 84 85 86 86 85 82 78 74 71 68 66 65 62 56 47 31 20 355 341 245 74 60 65 71 58 52 59 64 52 48 51 53 49 47 58 47 52 48 50 48 50
133 137 138 141 138 133 86 84 107 108 104 104 107 121 126 124 127 128 129 132 129 112 106 107 105 104 107 111 113 113 112 110 109 107 106 103 97 98 98 98 95 90 85 81 81 82 83 86 84 82 79 76 71 68 65 62 58 51 40 27 11 352 354 37 52 64 64 62 66 60 60 56 46 46 50 51 51 53 54 51 51 64 49 50 53
135 139 147 143 151 138 146 95 94 111 108 106 90 107 126 129 133 136 131 128 124 116 115 104 111 114 114 112 115 114 105 100 87 83 101 108 102 101 100 98 93 92 90 88 89 88 88 85 85 84 81 77 73 68 63 59 53 47 38 28 5 5 350 335 67 65 55 50 75 70 58 54 51 52 50 44 53 42 51 53 31 64 49 45 47
138 145 157 142 155 155 153 151 110 109 117 115 104 98 98 88 110 137 123 101 105 119 116 115 116 108 104 101 92 84 77 74 67 58 55 92 101 92 98 96 96 93 88 85 84 87 84 83 81 82 81 76 71 67 63 56 48 44 38 18 8 3 336 328 71 61 65 61 56 59 50 26 32 56 55 57 52 44 41 49 32 61 48 45 39
145 160 159 150 163 166 160 146 143 157 145 132 106 105 100 107 104 100 109 106 101 105 110 111 109 97 95 92 89 84 79 71 66 59 63 61 71 87 86 90 89 90 88 85 84 83 82 83 83 82 79 77 72 68 62 55 47 41 29 14 355 349 319 319 69 63 74 97 69 62 47 356 3 52 51 43 61 47 43 38 27 23 39 43 31
156 175 160 156 162 176 163 154 166 163 156 167 149 110 112 107 110 111 107 110 109 110 111 112 109 99 96 98 91 91 82 80 68 67 64 59 83 94 89 91 94 91 88 83 79 77 79 81 84 84 83 83 80 72 63 54 49 37 26 355 327 299 313 297 47 66 46 21 67 70 32 2 4 37 56 48 50 48 42 37 26 18 19 40 26
164 181 168 163 165 176 172 164 168 167 169 162 158 138 118 119 116 108 107 111 115 114 114 112 112 113 115 118 118 117 116 103 106 89 78 71 61 67 85 105 103 99 97 93 84 80 79 83 85 88 90 90 89 84 74 64 50 30 6 338 293 293 272 49 65 34 73 57 60 63 15 6 10 21 35 24 31 41 35 26 27 14 11 19 15
169 188 186 165 169 180 181 177 174 174 168 166 155 154 124 125 121 115 113 116 119 119 117 118 118 126 133 143 157 157 147 137 153 130 111 78 72 76 74 77 98 101 99 94 89 83 82 82 85 88 95 100 110 109 101 89 66 55 340 294 297 273 54 39 35 44 47 46 74 52 13 8 3 10 26 32 9 36 40 17 15 9 12 352 354
172 179 189 169 176 182 181 186 177 180 177 169 163 159 145 172 167 147 145 136 127 131 144 150 149 146 155 170 187 153 153 158 125 143 142 135 87 79 83 87 83 79 91 92 91 88 87 83 82 85 95 139 188 181 145 138 143 165 240 268 276 57 50 24 15 64 47 12 73 42 10 1 2 357 5 16 17 24 47 3 354 350 353 352 342
174 179 181 182 179 181 183 187 188 183 181 177 177 168 165 184 178 184 162 164 152 169 179 177 185 170 181 197 190 163 162 154 128 80 84 79 97 92 98 103 104 101 97 96 96 98 97 94 99 123 171 228 234 247 95 187 170 194 222 239 349 48 31 346 332 43 56 34 49 57 17 352 351 351 350 356 1 10 1 348 343 343 344 343 326
176 179 173 186 183 184 181 187 186 186 184 185 184 190 182 186 183 183 179 188 177 194 194 184 196 183 191 194 188 151 173 111 105 115 128 149 120 117 123 120 122 124 139 131 132 139 152 149 165 209 226 222 277 322 66 209 339 240 193 359 30 41 321 3 337 324 4 138 83 89 5 346 337 336 340 340 339 337 340 337 337 335 336 336 333
177 172 173 184 188 186 177 185 184 191 187 188 189 191 190 194 184 186 186 188 187 193 193 192 198 189 206 204 190 138 203 152 155 163 195 178 161 166 168 185 180 172 193 211 180 164 196 180 179 208 228 171 222 336 333 348 295 293 303 19 350 0 317 260 336 332 299 343 120 122 69 324 323 323 329 330 327 327 330 333 331 329 331 336 332
173 180 180 180 187 187 180 180 185 191 191 192 190 184 189 196 195 191 188 195 186 191 194 191 191 198 201 223 169 176 206 168 179 179 203 166 185 183 182 196 177 171 192 219 212 191 213 203 217 244 225 247 0 328 318 323 318 301 316 0 315 318 301 338 323 319 308 293 118 135 166 292 303 312 319 321 321 322 327 329 327 325 330 331 327
177 188 180 179 183 186 183 183 184 190 194 200 185 188 195 203 201 195 195 196 190 193 195 194 196 190 202 210 196 195 203 202 185 196 195 191 192 191 192 186 185 191 190 201 178 206 224 210 210 206 210 256 257 270 260 272 285 295 291 286 289 306 291 301 312 330 311 297 139 153 174 249 274 295 304 310 320 325 326 324 323 322 325 325 327
180 185 183 180 178 186 184 186 185 186 192 198 193 192 190 203 202 199 211 197 194 195 199 198 190 191 201 201 203 206 201 205 193 192 203 204 204 195 201 184 197 199 187 221 190 202 210 218 212 214 217 233 231 265 270 245 249 258 270 275 301 289 303 309 304 296 295 297 300 166 173 199 247 289 301 313 322 326 328 329 324 324 327 328 332
190 187 180 183 179 184 185 189 186 189 189 193 198 197 192 198 196 204 203 208 205 199 200 195 194 193 194 205 200 211 202 202 193 193 201 200 208 197 207 208 202 209 190 217 214 223 220 217 207 216 221 257 276 251 258 272 288 280 320 311 288 279 301 294 300 314 281 297 309 141 178 176 218 275 304 318 326 332 334 333 328 325 329 331 335
195 189 184 187 179 183 187 189 189 189 188 190 196 199 195 196 198 199 200 206 210 211 199 198 198 193 190 194 197 209 200 197 184 192 193 199 201 195 212 216 201 215 200 221 206 235 226 207 224 228 244 248 269 266 303 281 270 277 289 323 298 291 283 287 294 298 314 309 299 238 172 167 191 256 300 331 344 344 345 345 343 342 341 342 344
196 194 191 187 178 183 188 189 191 187 188 192 194 200 195 198 197 198 197 203 207 211 208 204 201 201 198 186 194 204 206 200 190 191 185 193 196 193 208 202 215 212 196 217 184 227 242 247 203 233 225 249 276 292 296 289 281 277 278 242 292 303 295 294 295 295 297 305 318 313 188 173 174 192 297 3 2 4 3 4 4 357 353 357 3
204 200 193 186 181 186 187 191 192 186 192 194 192 199 195 199 197 200 199 200 198 210 210 206 208 204 201 188 193 194 207 200 199 189 199 191 194 195 197 201 215 209 198 205 192 201 246 231 200 328 308 303 281 284 293 304 300 293 279 283 266 270 284 299 306 296 295 303 297 298 310 285 170 176 135 52 30 22 18 20 17 14 14 18 21
207 203 196 190 188 186 189 192 194 186 195 195 194 198 195 195 196 200 199 193 197 207 210 207 206 205 199 195 194 196 195 205 195 196 197 201 198 192 201 201 216 211 191 183 222 221 222 238 226 218 254 257 270 276 277 260 274 281 278 281 285 290 293 297 297 298 298 299 304 308 324 328 337 146 138 115 64 33 29 29 27 28 28 31 29
202 204 200 197 194 189 186 189 194 193 193 200 196 195 198 195 196 200 200 190 197 200 208 209 205 205 198 195 198 198 198 200 201 193 196 203 201 201 209 210 210 216 220 201 215 226 236 231 240 226 239 246 268 275 276 273 274 282 284 281 277 280 302 304 307 312 315 298 309 330 332 330 354 21 80 113 82 45 38 35 36 31 33 35 32
201 203 203 200 197 198 187 191 189 197 190 201 202 199 196 197 197 200 198 194 198 202 204 208 203 204 199 194 196 197 200 202 200 195 195 202 207 209 212 220 217 213 214 218 231 231 234 245 243 246 254 268 271 272 268 270 278 282 282 285 287 301 295 292 296 284 284 308 315 325 330 21 14 49 22 118 104 76 47 40 40 36 35 36 34
204 203 200 199 203 202 196 199 190 199 193 197 201 202 201 200 200 200 204 195 201 204 206 208 208 204 202 199 192 195 196 201 199 202 197 201 209 213 207 213 216 199 217 224 214 242 240 243 249 256 266 268 274 269 266 272 275 279 279 275 277 281 283 291 289 294 319 355 312 3 42 64 50 58 359 27 61 102 87 62 54 50 38 34 33
203 203 201 199 206 205 200 205 203 198 199 196 201 202 205 204 202 200 208 197 205 207 209 210 211 208 204 205 192 192 194 196 200 200 208 203 209 215 211 213 206 202 213 220 221 224 241 236 247 252 265 274 279 279 273 273 269 267 280 268 255 269 271 282 293 302 352 276 280 158 114 105 97 213 51 49 30 98 131 117 110 71 53 37 37
203 205 204 203 205 206 203 206 212 210 210 206 198 204 209 209 206 204 202 208 208 213 212 211 213 212 208 206 197 190 192 193 197 198 206 211 212 216 217 213 203 209 218 220 227 230 236 241 250 250 244 254 257 264 269 270 270 276 277 280 275 274 281 282 295 354 261 179 153 85 109 106 87 68 67 64 39 37 49 164 121 92 77 51 48
202 204 205 205 205 207 206 197 206 212 212 214 212 214 214 215 211 208 202 209 215 216 216 213 213 215 213 208 200 194 193 193 194 197 203 206 211 216 218 216 214 219 224 221 231 236 239 242 245 255 252 245 262 271 271 284 290 274 266 264 270 279 286 280 270 261 101 132 103 121 94 101 102 71 69 42 49 13 48 23 103 153 89 83 59
202 202 204 206 205 207 206 206 200 211 212 211 209 211 216 218 217 216 217 213 218 215 216 221 216 215 214 208 200 199 195 194 195 197 200 204 207 210 211 216 219 220 223 226 228 229 230 231 239 248 251 248 233 255 256 259 260 265 257 260 258 270 266 273 263 141 160 146 152 189 115 139 100 101 70 32 48 39 50 44 63 46 107 107 94
203 202 202 205 208 207 204 210 197 204 211 208 209 208 208 211 217 216 216 217 218 222 226 224 225 218 210 204 204 201 208 195 197 196 198 203 209 208 208 217 220 220 226 230 231 240 236 227 234 228 236 250 247 236 244 250 255 256 247 241 261 278 275 140 206 165 147 155 171 133 130 194 83 54 30 47 78 63 49 60 58 61 54 115 122
203 202 203 204 207 209 209 208 207 203 212 212 209 208 207 206 205 211 215 216 213 202 221 225 226 232 229 222 221 220 216 211 196 196 198 199 202 209 212 218 214 217 224 233 238 234 236 234 230 237 220 242 252 242 209 206 224 245 260 289 292 281 196 180 180 171 129 155 133 96 142 75 38 26 21 60 83 71 65 65 66 64 62 60 59
205 205 206 205 206 208 211 209 209 213 212 212 211 212 208 208 208 210 207 214 216 207 213 222 221 226 228 227 219 215 215 218 207 194 197 199 201 204 208 211 220 220 218 223 227 229 229 229 224 230 238 222 236 245 204 202 239 76 66 7 267 243 150 200 191 182 171 159 161 143 55 89 89 357 19 70 66 79 79 73 71 67 64 59 61
213 212 210 210 208 210 210 210 212 213 213 211 210 215 212 211 213 214 212 216 217 216 203 207 215 219 224 224 224 214 212 217 215 202 195 194 200 205 209 213 220 212 218 223 219 226 227 225 226 227 234 243 212 216 202 191 230 205 211 213 329 6 284 186 175 194 159 165 198 177 130 343 105 179 81 79 78 84 80 76 76 74 75 65 64
213 211 209 206 209 209 209 210 211 212 212 208 198 210 212 213 212 215 223 223 227 226 217 213 209 214 217 218 220 221 221 220 217 213 190 197 199 205 211 216 224 216 216 224 222 222 225 224 223 222 219 227 229 226 178 185 199 232 261 176 221 217 208 68 91 184 154 173 197 214 129 161 164 116 104 92 100 98 95 89 91 88 80 75 64
214 213 207 205 207 210 209 209 210 210 212 211 203 200 207 208 205 209 211 216 221 218 220 217 206 209 217 218 220 216 219 219 213 213 199 200 202 199 206 218 222 220 216 220 222 223 223 221 220 221 221 219 228 231 177 172 215 208 235 252 316 292 32 81 35 189 146 194 179 203 154 157 163 119 97 111 110 107 98 98 99 87 72 72 66
213 210 208 210 211 212 211 208 207 210 210 209 204 201 207 210 212 210 210 212 219 224 220 216 216 212 216 219 218 217 216 214 214 212 204 206 203 200 203 211 225 227 214 215 219 220 220 215 217 217 220 216 216 227 220 170 177 217 220 233 217 174 143 251 221 287 283 126 160 162 162 146 142 121 113 110 108 113 109 106 100 89 80 76 65
205 200 207 213 215 214 212 209 209 210 210 206 204 203 205 208 212 214 214 215 218 222 215 219 217 214 212 220 219 216 213 209 203 206 214 215 198 205 208 205 212 224 221 218 218 215 213 205 208 215 214 215 212 220 220 201 180 193 192 207 198 143 189 247 303 271 284 299 200 110 114 149 130 106 108 109 117 106 116 111 112 115 107 88 71
200 199 203 207 212 219 218 215 214 213 213 207 205 203 203 204 208 213 217 219 221 221 219 210 206 205 215 218 215 210 202 200 205 209 213 213 200 207 206 203 207 211 210 217 215 212 215 212 198 200 207 192 197 202 216 206 189 212 160 190 155 162 175 207 244 229 228 235 241 201 148 124 123 138 126 108 99 110 118 117 119 115 117 120 104
207 200 202 202 207 209 214 217 219 216 214 213 207 209 204 204 210 212 216 217 214 221 223 218 199 205 218 215 211 198 188 201 205 209 206 207 207 206 213 214 211 210 196 199 202 209 213 214 199 187 195 193 191 203 207 198 191 190 180 163 158 149 133 163 190 202 229 239 247 226 102 158 169 144 127 117 134 141 142 146 141 128 117 109 98
196 200 201 205 205 207 209 214 218 218 217 216 214 213 211 207 212 214 215 216 213 210 213 220 216 207 218 217 213 195 198 204 203 210 212 206 206 202 205 208 210 211 195 200 202 200 203 209 199 178 191 194 191 198 202 208 192 189 178 170 171 167 173 184 188 197 203 210 221 244 209 175 184 144 122 123 131 134 139 137 127 128 122 105 87